Location: Bakov nad Jizerou
(50.4784°N, 14.9394°E)
Time: 15:39:02
(UTC+00:00)

USA 32 - Pass Details

Date: 16 June 2021
Orbit: 777 x 783 km, 85.0° (Epoch: 15 July)

Event Time Altitude Azimuth Distance (km) Brightness Sun altitude
Rises 23:13:32 0° 352° (N) 3,280 8.9 -16.1°
Reaches altitude 10° 23:15:54 10° 351° (N) 2,346 7.8 -16.1°
Maximum altitude 23:21:08 75° 267° (W) 813 4.1 -16.0°
Enters shadow 23:24:07 26° 186° (S) 1,491 4.9 -16.0°
